Location: ????? ??????
(37.8317°N, 23.8750°E)
Time: 13:38:23
(UTC+00:00)

Cosmos 44 - Pass Details

Date: 20 January 2021
Orbit: 572 x 790 km, 65.1° (Epoch: 03 March)

Event Time Altitude Azimuth Distance (km) Brightness Sun altitude
Rises 17:32:30 0° 213° (SSW) 2,912 7.1 -23.1°
Reaches altitude 10° 17:34:43 10° 215° (SW) 2,040 6.2 -23.5°
Maximum altitude 17:39:21 76° 301° (WNW) 704 3.3 -24.4°
Enters shadow 17:40:16 57° 7° (N) 807 3.4 -24.6°
